Moron de la Frontera, Spain

4:16 AM CET on December 09, 2016 (GMT +0100)
Moron Air Base

Weather History for LEMO - May, 2013

Change the Weather History Date:

Thursday, May 30, 2013

  Actual Average Record
Temperature  
Mean Temperature 66 °F -  
Max Temperature 80 °F 87 °F 98 °F (2012)
Min Temperature 53 °F 61 °F 52 °F (2014)
Cooling Degree Days 2    
Growing Degree Days 16 (Base 50)    
Moisture  
Dew Point 49 °F    
Average Humidity 56    
Maximum Humidity 82    
Minimum Humidity 30    
Precipitation  
Precipitation 0.00 in - - ()
Sea Level Pressure  
Sea Level Pressure 30.04 in    
Wind  
Wind Speed 3 mph ()    
Max Wind Speed 13 mph    
Max Gust Speed -    
Visibility 6.2 miles    
Events      
Averages and records for this station are not official NWS values.
T = Trace of Precipitation, MM = Missing Value Source: Averaged Metar Reports

Daily Weather History Graph

Daily Weather History Graph

Search for Another Location

Airport or City:

Trip Planner

Search our weather history database for the weather conditions in past years. The results will help you decide how hot, cold, wet, or windy it might be!

Date:

Astronomy

May. 30, 2013 Rise Set
Actual Time 7:04 AM CEST 9:35 PM CEST
Civil Twilight 6:34 AM CEST 10:05 PM CEST
Nautical Twilight 5:57 AM CEST 10:43 PM CEST
Astronomical Twilight 5:15 AM CEST 11:25 PM CEST
Moon 1:32 AM CEST (5/30) 12:52 PM CEST (5/30)
Length of Visible Light 15h 31m
Length of Day
14h 31m
Waning Gibbous, 65% of the Moon is Illuminated
May 30
Waning Gibbous
May 31
Last Quarter
Jun 8
New
Jun 16
First Quarter
Jun 23
Full

Hourly Weather History & Observations

Time (CEST) Temp. Dew Point Humidity Pressure Visibility Wind Dir Wind Speed Gust Speed Precip Events Conditions
12:00 AM 62.6 °F 51.8 °F 68% 30.06 in - Calm Calm - N/A   Clear
1:00 AM 62.6 °F 48.2 °F 59% 30.06 in - NW 8.1 mph - N/A   Clear
2:00 AM 60.8 °F 48.2 °F 63% 30.06 in - West 4.6 mph - N/A   Clear
3:00 AM 59.0 °F 48.2 °F 67% 30.06 in - WNW 3.5 mph - N/A   Clear
4:00 AM 59.0 °F 50.0 °F 72% 30.04 in 6.2 mi Variable 2.3 mph - N/A   Mostly Cloudy
5:00 AM 55.4 °F 48.2 °F 77% 30.04 in - West 2.3 mph - N/A   Clear
6:00 AM 55.4 °F 48.2 °F 77% 30.04 in 6.2 mi SW 3.5 mph - N/A   Scattered Clouds
7:00 AM 53.6 °F 48.2 °F 82% 30.04 in 6.2 mi SSW 4.6 mph - N/A   Partly Cloudy
8:00 AM 55.4 °F 50.0 °F 82% 30.06 in 6.2 mi Calm Calm - N/A   Partly Cloudy
9:00 AM 62.6 °F 51.8 °F 68% 30.06 in 6.2 mi NNW 6.9 mph - N/A   Partly Cloudy
10:00 AM 64.4 °F 51.8 °F 64% 30.06 in 6.2 mi North 5.8 mph - N/A   Partly Cloudy
11:00 AM 66.2 °F 50.0 °F 56% 30.06 in 6.2 mi North 5.8 mph - N/A   Partly Cloudy
12:00 PM 68.0 °F 50.0 °F 52% 30.06 in 6.2 mi Calm Calm - N/A   Partly Cloudy
1:00 PM 71.6 °F 48.2 °F 43% 30.06 in 6.2 mi Variable 3.5 mph - N/A   Partly Cloudy
2:00 PM 73.4 °F 48.2 °F 41% 30.06 in 6.2 mi Variable 2.3 mph - N/A   Partly Cloudy
3:00 PM 77.0 °F 48.2 °F 36% 30.04 in 6.2 mi Calm Calm - N/A   Partly Cloudy
4:00 PM 78.8 °F 48.2 °F 34% 30.04 in 6.2 mi Calm Calm - N/A   Partly Cloudy
5:00 PM 78.8 °F 48.2 °F 34% 30.04 in - Variable 4.6 mph - N/A   Clear
6:00 PM 80.6 °F 46.4 °F 30% 30.01 in - Variable 1.2 mph - N/A   Clear
7:00 PM 78.8 °F 46.4 °F 32% 30.01 in - Variable 2.3 mph - N/A   Clear
8:00 PM 78.8 °F 44.6 °F 30% 30.01 in - NNW 4.6 mph - N/A   Clear
9:00 PM 71.6 °F 53.6 °F 53% 30.01 in - West 12.7 mph - N/A   Clear
10:00 PM 66.2 °F 51.8 °F 60% 30.04 in - WSW 8.1 mph - N/A   Clear
11:00 PM 62.6 °F 51.8 °F 68% 30.06 in - SW 6.9 mph - N/A   Clear